Location: Chavannes
(47.1090°N, 0.2226°W)
Time: 09:56:04
(UTC+00:00)

Daily predictions for brighter satellites

Satellite Brightness Start Highest point End
(mag) Time Altitude Azimuth Time Altitude Azimuth Time Altitude Azimuth
Cosmos 1697 Rocket 3.0 17:36:01 10° S 17:41:25 48° ESE 17:46:50 10° NE
Cosmos 1125 Rocket 4.2 17:37:02 10° SSE 17:41:43 33° ESE 17:46:23 10° NE
SME Rocket 3.8 17:38:29 10° N 17:42:20 63° WNW 17:47:13 10° SSW
Cosmos 1908 4.3 17:42:28 10° SE 17:45:35 23° E 17:48:42 10° NE
Cosmos 1607 4.2 17:40:23 10° NNW 17:46:33 51° NE 17:52:34 10° ESE
Cosmos 1356 3.4 17:44:25 10° N 17:47:47 59° ENE 17:51:08 10° SSE
Meteor 1-24 Rocket 4.3 17:42:59 10° NNW 17:48:39 68° W 17:54:28 10° S
Cosmos 2227 Rocket 2.4 17:43:42 10° NNW 17:49:24 80° WSW 17:55:03 10° SSE
Iridium 4 Rocket 4.4 17:48:18 10° NNE 17:51:32 20° ENE 17:54:54 10° ESE
Cosmos 494 Rocket 4.0 17:47:18 10° NNW 17:52:29 59° ENE 17:57:35 10° SE
Landsat 5 3.9 17:49:20 10° NNE 17:53:29 44° E 17:57:43 10° S
MOS 1-B Rocket 4.5 17:48:43 10° NNE 17:55:30 46° E 18:01:21 10° S
CZ-2C R/B 3.0 17:50:23 10° NNE 17:55:47 45° E 18:01:06 10° S
Timation 2 Rocket 4.2 17:49:17 10° NNW 17:56:14 86° ENE 18:03:00 10° SSE
SKYMED 2 3.7 17:52:12 10° NNE 17:56:28 51° E 18:00:41 10° S
Cosmos 1726 3.3 17:54:54 10° SSW 17:58:23 46° WNW 18:01:55 10° N
Okean 2 Rocket 4.3 17:55:30 10° SSW 17:59:46 48° WNW 18:04:07 10° N
Cosmos 1470 3.4 17:56:27 10° SSW 18:00:23 61° WNW 18:04:20 10° N
USA 215 4.1 17:55:56 10° NE 18:02:05 45° NNW 18:08:15 10° W
Cosmos 2084 Rocket 3.4 17:58:35 10° SW 18:02:27 70° NW 18:06:21 10° NE
Okean O Rocket 1.5 17:58:12 10° SSE 18:02:30 71° ENE 18:06:51 10° N
Cosmos 1758 3.3 18:03:15 10° S 18:07:14 90° SE 18:11:15 10° N
Cosmos 1703 3.8 18:04:08 10° N 18:07:49 37° ENE 18:11:28 10° SE
CZ-4 R/B 2.0 18:05:12 10° SE 18:08:47 34° ENE 18:12:27 10° N
YAOGAN 1 3.1 18:05:35 10° SE 18:09:34 37° ENE 18:13:34 10° N
SL-16 R/B 4.0 18:08:20 10° ESE 18:08:50 11° ESE 18:08:50 11° ESE
Okean-O 3.7 18:07:47 10° ESE 18:11:22 24° ENE 18:14:57 10° N
SL-19 R/B 4.4 18:07:25 10° NNE 18:13:19 83° WNW 18:18:55 10° SSW
Cosmos 1455 Rocket 3.7 18:09:54 10° SSE 18:13:51 33° E 18:17:51 10° NNE
Cosmos 2082 3.6 18:08:57 10° NNW 18:14:36 83° ENE 18:20:14 10° SSE
Spot 2 3.9 18:13:46 10° SSE 18:17:45 60° ENE 18:21:54 10° N
Cosmos 1953 2.5 18:14:01 10° SSE 18:17:54 48° E 18:21:50 10° NNE
H-2A R/B 2.8 18:16:09 10° NE 18:19:38 26° E 18:23:08 10° SSE
Cosmos 1727 Rocket 4.1 18:14:04 10° N 18:20:19 81° W 18:26:30 10° S
Okean 1-7 Rocket 4.4 18:17:16 10° N 18:21:10 30° ENE 18:24:34 12° SE
Cosmos 2150 Rocket 4.0 18:15:44 10° SSW 18:21:11 80° ESE 18:26:35 10° NNE
Meteor 1-21 Rocket 4.3 18:17:30 10° N 18:23:20 72° ENE 18:29:14 10° SSE
Cosmos 1544 Rocket 4.4 18:23:21 10° SSE 18:27:07 28° E 18:30:55 10° NNE
H-2A R/B 3.0 18:26:30 10° S 18:31:42 54° W 18:37:03 10° NNW
ATLAS 3B R/B 2.8 18:27:45 10° SW 18:34:18 74° NW 18:41:12 10° NE
Cosmos 1300 4.4 18:31:59 10° SSE 18:38:01 13° NE 18:38:31 10° NNE
Lacrosse 4 Rocket 3.4 18:33:19 10° N 18:35:41 14° NE 18:36:04 14° NE
Cosmos 405 Rocket 2.7 18:33:35 10° N 18:37:29 63° ENE 18:41:26 10° SSE
Okean 1 Rocket 4.2 18:35:10 10° SSW 18:39:19 45° WNW 18:43:30 10° N
CZ-4B R/B 4.4 18:35:26 10° S 18:40:51 47° W 18:46:20 10° NNW
ATLAS 5 CENTAUR R/B 1.7 18:40:49 10° SSW 18:44:29 42° ESE 18:45:39 33° E
COSMO-SKYMED 1 3.4 18:40:20 10° N 18:44:35 52° WNW 18:48:47 10° SSW
OPS 6432 4.4 18:42:06 10° NNW 18:45:01 52° NE 18:45:27 47° E
Cosmos 2227 4.3 18:46:20 10° NNW 18:52:02 56° ENE 18:55:04 27° SE
Cosmos 2369 3.9 18:46:45 10° SSW 18:52:24 74° WNW 18:58:07 10° NNE
CZ-4C R/B 4.1 18:49:39 10° N 18:52:58 44° WNW 18:56:12 10° SW
HJ-1C 3.2 18:51:07 20° SSE 18:53:15 90° ENE 18:56:31 10° NNW
IRS-1C Rocket 4.0 18:51:35 10° SSE 18:56:50 79° ENE 19:02:07 10° NNW
Cosmos 1605 Rocket 4.2 18:51:46 10° SSE 18:57:37 45° E 19:03:35 10° NNE
H-2A R/B 3.2 18:53:19 10° S 18:57:39 56° WSW 19:01:53 10° NNW
Cosmos 1892 Rocket 4.1 18:54:10 10° NNW 18:58:36 61° W 19:02:58 10° S
Cosmos 389 Rocket 4.3 18:56:22 10° SW 18:59:27 32° WNW 19:02:33 10° N
SL-08 RB Rocket 4.2 18:56:09 10° S 19:00:37 61° W 19:05:10 10° NNW
USA 186 4.4 19:04:38 11° N 19:04:38 11° N 19:04:44 10° N
Cosmos 1174 3.9 18:58:58 10° SW 19:02:08 50° NW 19:03:08 33° N
Cosmos 1535 Rocket 4.4 18:56:09 10° S 19:02:18 67° E 19:08:35 10° NNE
Cosmos 1980 Rocket 2.4 19:00:54 10° SSW 19:06:33 75° WNW 19:12:16 10° NNE
Cosmos 489 Rocket 4.4 19:02:02 10° NNW 19:08:17 88° WSW 19:13:45 14° SSE
Meteor 2-10 Rocket 4.3 19:03:06 10° SSE 19:09:28 36° ENE 19:13:25 10° NNE
X-37B 1.5 19:05:42 10° WSW 19:08:08 40° SSW 19:08:08 40° SSW
Cosmos 2263 Rocket 2.1 19:03:52 10° NNW 19:09:29 90° NNE 19:12:46 26° SSE
Cosmos 1269 Rocket 3.9 19:06:06 10° NNW 19:11:27 90° ESE 19:14:30 26° SSE
CSL-04 Debris 4.0 19:08:41 20° SSE 19:12:32 78° ENE 19:17:57 10° NNW
SJ-6B 4.5 19:21:19 23° NNE 19:21:19 23° NNE 19:22:56 10° N
Cosmos 724 4.2 19:18:45 10° NW 19:24:46 84° SW 19:26:54 42° SSE
Cosmos 2251 Rocket 4.3 19:20:26 10° N 19:24:32 35° NE 19:24:32 35° NE
Cosmos 1697 Rocket 4.3 19:20:31 10° WSW 19:25:35 32° NW 19:30:39 10° NNE
Cosmos 1626 Rocket 3.4 19:23:37 10° N 19:27:58 86° W 19:28:11 80° SSW
Cosmos 371 Rocket 4.0 19:25:45 10° S 19:28:53 40° S 19:28:53 40° S
Iridium 4 Rocket 4.3 19:27:32 10° NNW 19:31:41 44° W 19:36:07 10° SSW
CSL-04 Rocket 3.7 19:30:11 27° S 19:33:18 80° WSW 19:38:54 10° NNW
MetOp-A 4.4 19:31:02 18° S 19:35:05 67° WSW 19:40:27 10° NNW
Cosmos 2278 4.2 19:30:37 10° SW 19:36:12 59° WNW 19:41:52 10° NNE
Ariane Rocket 4.3 19:41:05 27° NNE 19:41:05 27° NNE 19:43:46 10° N
Gbstr 26 Del rocket 4.5 19:34:04 10° WNW 19:41:28 74° SSW 19:44:00 47° SE
Orbus 7S? 4.2 19:33:22 10° NW 19:41:50 61° NNE 19:41:55 61° NNE
CZ-4 R/B 3.8 19:40:45 10° SW 19:43:51 22° W 19:47:02 10° NW
USA 215 4.2 19:42:01 29° NE 19:44:17 38° N 19:50:12 10° WNW
Cosmos 1844 Rocket 3.4 19:40:08 10° NNW 19:44:21 38° NNE 19:44:21 38° NNE
Cosmos 2278 Rocket 4.4 19:45:01 10° N 19:46:37 12° NNE 19:46:37 12° NNE
Okean-O 3.9 19:45:17 22° SSW 19:47:38 40° W 19:51:50 10° NNW
SL-16 R/B 3.2 19:47:45 10° SSW 19:50:51 34° SSW 19:50:51 34° SSW
H-2A R/B 3.7 19:52:00 10° N 19:55:37 30° WNW 19:59:14 10° SW
Resurs 01 Rocket 4.1 20:03:55 13° N 20:03:55 13° N 20:04:27 10° N
Cosmos 2344 4.2 20:03:29 10° NW 20:12:36 87° NE 20:15:56 54° SE
Lacrosse 4 Rocket 3.6 20:10:46 10° NNW 20:12:22 22° NNW 20:12:22 22° NNW
ATLAS 3B R/B 4.4 20:20:36 10° W 20:26:11 27° NNW 20:30:33 15° NNE
ATLAS 5 CENTAUR R/B 3.9 20:25:39 10° W 20:27:13 20° WNW 20:27:13 20° WNW
CENTAUR R/B 4.3 20:46:48 10° NW 20:53:09 28° NNE 20:53:18 28° NNE
